Location: Newark
(30.0333°N, 31.2167°E)
Time: 22:06:18
(UTC+00:00)

Vanguard 2 Rocket - Visible Passes

Search period start: 19 January 2020 00:00
Search period end: 29 January 2020 00:00
Orbit: 554 x 3326 km, 32.9° (Epoch: 18 January)

Date Brightness Start Highest point End Pass type
(mag) Time Alt. Az. Time Alt. Az. Time Alt. Az.
19 Jan 8.0 02:36:54 24° S 02:38:26 28° SE 02:43:48 10° E visible
20 Jan 9.2 01:41:09 12° ESE 01:41:09 12° ESE 01:42:00 10° ESE visible
20 Jan 7.0 03:47:00 12° WSW 03:51:34 75° SSE 03:59:39 10° ENE visible
21 Jan 7.1 02:51:12 40° S 02:52:18 48° SSE 02:58:27 10° E visible
22 Jan 8.7 01:55:20 19° ESE 01:55:20 19° ESE 01:57:33 10° E visible
22 Jan 6.9 04:01:10 11° W 04:05:51 83° NNW 04:13:58 10° ENE visible
23 Jan 6.4 03:05:16 51° SW 03:06:25 77° SSE 03:12:50 10° ENE visible
24 Jan 8.1 02:09:19 28° E 02:09:19 28° E 02:12:13 10° E visible
24 Jan 7.0 04:15:24 10° W 04:20:14 70° N 04:28:21 10° E visible
25 Jan 6.3 03:19:09 42° W 03:20:43 78° NNW 03:27:09 10° ENE visible
26 Jan 7.5 02:23:08 38° E 02:23:08 38° E 02:26:35 10° ENE visible
27 Jan 6.5 03:32:55 29° WNW 03:35:07 65° N 03:41:31 10° E visible
28 Jan 6.9 02:36:51 49° ENE 02:36:51 49° ENE 02:40:54 10° ENE visible
